TimeEST,TemperatureF,Dew PointF,Humidity,Sea Level PressureIn,VisibilityMPH,Wind Direction,Wind SpeedMPH,Gust SpeedMPH,PrecipitationIn,Events,Conditions,WindDirDegrees,DateUTC
12:56 AM,19.0,10.9,71,29.64,-9999.0,NNW,33.4,43.7,N/A,,Unknown,340,2013-01-20 05:56:00
1:56 AM,18.0,10.0,71,29.69,-9999.0,NNW,28.8,48.3,N/A,,Unknown,340,2013-01-20 06:56:00
2:56 AM,18.0,10.0,71,29.76,-9999.0,North,39.1,49.5,N/A,,Unknown,350,2013-01-20 07:56:00
3:56 AM,17.1,10.0,74,29.83,-9999.0,NNW,29.9,43.7,N/A,,Unknown,340,2013-01-20 08:56:00
4:56 AM,17.1,7.0,65,29.89,-9999.0,North,26.5,41.4,N/A,,Unknown,350,2013-01-20 09:56:00
5:56 AM,16.0,10.0,77,29.93,-9999.0,North,23.0,41.4,N/A,,Unknown,350,2013-01-20 10:56:00
6:56 AM,15.1,8.1,74,29.96,-9999.0,North,27.6,38.0,0.02,,Unknown,350,2013-01-20 11:56:00
7:56 AM,15.1,9.0,77,30.00,-9999.0,NNW,21.9,34.5,N/A,,Unknown,340,2013-01-20 12:56:00
8:56 AM,14.0,8.1,77,30.06,-9999.0,NW,16.1,34.5,N/A,,Unknown,320,2013-01-20 13:56:00
9:56 AM,12.0,3.9,70,30.10,-9999.0,NW,19.6,28.8,0.01,,Unknown,310,2013-01-20 14:56:00
10:56 AM,12.9,1.0,59,30.12,-9999.0,NNW,13.8,28.8,0.01,,Unknown,330,2013-01-20 15:56:00
11:56 AM,10.9,3.9,73,30.14,-9999.0,NW,11.5,23.0,N/A,,Unknown,310,2013-01-20 16:56:00
12:56 PM,10.9,3.0,70,30.13,-9999.0,NW,16.1,26.5,0.02,,Unknown,310,2013-01-20 17:56:00
1:56 PM,12.9,1.9,62,30.13,-9999.0,NW,17.3,25.3,0.01,,Unknown,320,2013-01-20 18:56:00
2:56 PM,10.0,3.0,73,30.14,-9999.0,West,10.4,17.3,N/A,,Unknown,270,2013-01-20 19:56:00
3:56 PM,10.0,3.0,73,30.15,-9999.0,West,6.9,20.7,0.05,,Unknown,270,2013-01-20 20:56:00
4:56 PM,10.0,-2.0,58,30.16,-9999.0,West,9.2,16.1,N/A,,Unknown,270,2013-01-20 21:56:00
5:56 PM,8.1,-5.1,55,30.16,-9999.0,WSW,5.8,-,N/A,,Unknown,250,2013-01-20 22:56:00
6:56 PM,7.0,-5.1,58,30.16,-9999.0,SW,5.8,-,N/A,,Unknown,230,2013-01-20 23:56:00
7:56 PM,7.0,-6.0,55,30.15,-9999.0,WSW,9.2,-,N/A,,Unknown,250,2013-01-21 00:56:00
8:56 PM,6.1,-6.0,58,30.14,-9999.0,SW,9.2,-,N/A,,Unknown,230,2013-01-21 01:56:00
9:56 PM,3.9,-6.0,64,30.13,-9999.0,WSW,9.2,-,N/A,,Unknown,240,2013-01-21 02:56:00
10:56 PM,3.0,-8.0,60,30.12,-9999.0,WSW,9.2,-,N/A,,Unknown,240,2013-01-21 03:56:00
11:56 PM,3.0,-8.0,60,30.09,-9999.0,WSW,8.1,-,N/A,,Unknown,240,2013-01-21 04:56:00